EW4696 Weather Reports


time (UTC)temp
C
wind
direction
speed
KPH
gust
KPH
rain 1hr
cm
rain 24hr
cm
rain mn
cm
humidity
%
barometer
mb
20260510022005 26 0 0.0 1.6 0.00 0.00 0.00 77 1010.4
20260510021504 26 0 0.0 1.6 0.00 0.00 0.00 76 1010.3
20260510021004 26 0 0.0 0.0 0.00 0.00 0.00 76 1010.1
20260510020504 26 0 0.0 0.0 0.00 0.00 0.00 76 1010.0
20260510020005 26 0 0.0 0.0 0.00 0.00 0.00 75 1009.9
20260510015504 26 0 0.0 0.0 0.00 0.00 0.00 75 1009.9
20260510015004 26 0 0.0 0.0 0.00 0.00 0.00 74 1009.9
20260510014505 26 0 0.0 0.0 0.00 0.00 0.00 73 1009.8
20260510013504 27 0 0.0 0.0 0.00 0.00 0.00 72 1009.7
20260510012504 27 0 0.0 1.6 0.00 0.00 0.00 70 1009.7
20260510012005 27 0 0.0 0.0 0.00 0.00 0.00 69 1009.7
20260510011504 27 0 0.0 3.2 0.00 0.00 0.00 69 1009.7
20260510011004 27 0 0.0 3.2 0.00 0.00 0.00 68 1009.7
20260510010505 28 0 0.0 1.6 0.00 0.00 0.00 67 1009.7
20260510005504 28 0 0.0 3.2 0.00 0.00 0.00 67 1009.6
20260510005004 28 0 0.0 4.8 0.00 0.00 0.00 67 1009.5
20260510004505 28 0 0.0 4.8 0.00 0.00 0.00 66 1009.5
20260510004004 28 0 0.0 3.2 0.00 0.00 0.00 66 1009.5
20260510003504 28 0 0.0 4.8 0.00 0.00 0.00 65 1009.4
20260510003004 28 0 0.0 4.8 0.00 0.00 0.00 64 1009.2
20260510002505 29 0 0.0 4.8 0.00 0.00 0.00 63 1009.2
20260510002004 29 0 0.0 3.2 0.00 0.00 0.00 63 1009.1
20260510000504 29 0 0.0 3.2 0.00 0.00 0.00 61 1009.1
20260510000004 30 0 0.0 6.4 0.00 0.00 0.00 61 1009.1
20260509235004 30 0 0.0 3.2 0.00 0.00 0.00 59 1008.9
20260509234004 30 0 0.0 4.8 0.00 0.00 0.00 59 1008.9
20260509233504 30 0 0.0 6.4 0.00 0.00 0.00 58 1008.9
20260509233004 30 0 0.0 6.4 0.00 0.00 0.00 58 1008.8
20260509232504 30 0 0.0 4.8 0.00 0.00 0.00 57 1008.9
20260509231504 30 0 0.0 6.4 0.00 0.00 0.00 55 1008.8
20260509231004 30 128 1.6 6.4 0.00 0.00 0.00 56 1008.8
20260509230504 30 124 1.6 6.4 0.00 0.00 0.00 55 1008.9
20260509230004 30 119 1.6 6.4 0.00 0.00 0.00 54 1008.9
20260509225504 30 117 1.6 6.4 0.00 0.00 0.00 53 1008.8
20260509225004 31 116 1.6 6.4 0.00 0.00 0.00 52 1008.9
20260509224505 31 117 1.6 6.4 0.00 0.00 0.00 52 1008.9
20260509224005 31 119 1.6 4.8 0.00 0.00 0.00 51 1008.8
20260509223504 31 121 1.6 4.8 0.00 0.00 0.00 51 1008.8
20260509223005 31 122 1.6 4.8 0.00 0.00 0.00 50 1008.9
20260509222504 31 126 1.6 6.4 0.00 0.00 0.00 51 1009.0
20260509222004 31 135 1.6 6.4 0.00 0.00 0.00 50 1008.9
20260509221504 31 147 1.6 4.8 0.00 0.00 0.00 49 1008.8
20260509221005 31 146 1.6 4.8 0.00 0.00 0.00 50 1008.8
20260509220504 31 132 1.6 6.4 0.00 0.00 0.00 48 1008.9
20260509220004 31 117 1.6 8.0 0.00 0.00 0.00 48 1008.9
20260509215504 31 118 3.2 8.0 0.00 0.00 0.00 49 1008.9
20260509215004 31 126 3.2 6.4 0.00 0.00 0.00 48 1008.9
20260509214504 31 131 3.2 8.0 0.00 0.00 0.00 48 1008.9
20260509214004 31 108 1.6 8.0 0.00 0.00 0.00 50 1009.0
20260509213005 32 114 1.6 6.4 0.00 0.00 0.00 50 1009.1
20260509212504 32 118 1.6 8.0 0.00 0.00 0.00 49 1009.2
20260509211504 32 125 1.6 6.4 0.00 0.00 0.00 43 1009.2
20260509211005 31 113 1.6 9.7 0.00 0.00 0.00 41 1009.3
20260509210504 31 101 1.6 9.7 0.00 0.00 0.00 40 1009.5
20260509205504 31 94 1.6 4.8 0.00 0.00 0.00 45 1009.5
20260509205005 31 94 1.6 8.0 0.00 0.00 0.00 45 1009.6
20260509204504 31 94 1.6 8.0 0.00 0.00 0.00 47 1009.7
20260509204004 30 94 1.6 4.8 0.00 0.00 0.00 46 1009.7
20260509203504 30 90 1.6 4.8 0.00 0.00 0.00 48 1009.8
20260509203004 30 85 1.6 8.0 0.00 0.00 0.00 48 1009.9
20260509202504 30 97 1.6 8.0 0.00 0.00 0.00 50 1009.9
20260509202004 29 106 3.2 11.3 0.00 0.00 0.00 53 1010.1
20260509201505 28 105 3.2 11.3 0.00 0.00 0.00 51 1010.3
20260509201004 28 100 3.2 9.7 0.00 0.00 0.00 50 1010.5
20260509200504 28 97 3.2 9.7 0.00 0.00 0.00 48 1010.5
20260509200005 28 102 3.2 14.5 0.00 0.00 0.00 49 1010.6
20260509195504 28 107 3.2 14.5 0.00 0.00 0.00 53 1010.8
20260509194504 30 123 3.2 11.3 0.00 0.00 0.00 55 1010.6
20260509194005 31 75 1.6 11.3 0.00 0.00 0.00 55 1010.6
20260509193504 32 60 1.6 4.8 0.00 0.00 0.00 59 1010.4
20260509193004 31 66 1.6 4.8 0.00 0.00 0.00 61 1010.4
20260509192504 31 72 1.6 4.8 0.00 0.00 0.00 65 1010.3
20260509192004 31 0 0.0 4.8 0.00 0.00 0.00 64 1010.4
20260509191504 31 0 0.0 6.4 0.00 0.00 0.00 62 1010.4
20260509190504 31 74 1.6 8.0 0.00 0.00 0.00 61 1010.4
20260509190005 31 77 1.6 8.0 0.00 0.00 0.00 63 1010.4
20260509185504 31 82 1.6 8.0 0.00 0.00 0.00 62 1010.4
20260509185005 31 0 0.0 4.8 0.00 0.00 0.00 63 1010.6
20260509184004 31 86 1.6 3.2 0.00 0.00 0.00 63 1010.8
20260509183504 31 86 1.6 3.2 0.00 0.00 0.00 63 1011.0
20260509183005 31 86 1.6 3.2 0.00 0.00 0.00 63 1011.1
20260509182504 31 0 0.0 4.8 0.00 0.00 0.00 64 1011.1
20260509181504 31 102 1.6 8.0 0.00 0.00 0.00 65 1011.2
20260509181004 31 128 1.6 8.0 0.00 0.00 0.00 67 1011.2
20260509180504 31 184 1.6 4.8 0.00 0.00 0.00 68 1011.4
20260509174504 30 0 0.0 3.2 0.00 0.00 0.00 67 1011.4
20260509174004 30 0 0.0 3.2 0.00 0.00 0.00 69 1011.3
20260509173504 30 0 0.0 3.2 0.00 0.00 0.00 70 1011.4
20260509173004 30 161 1.6 4.8 0.00 0.00 0.00 71 1011.7
20260509172004 30 132 1.6 4.8 0.00 0.00 0.00 72 1012.0
20260509170504 29 0 0.0 3.2 0.00 0.00 0.00 73 1012.1
20260509170004 29 0 0.0 3.2 0.00 0.00 0.00 75 1012.2
20260509165004 29 139 1.6 6.4 0.00 0.00 0.00 76 1012.1
20260509164504 29 142 1.6 6.4 0.00 0.00 0.00 76 1012.0
20260509164004 28 144 1.6 4.8 0.00 0.00 0.00 77 1012.0
20260509163505 28 143 1.6 4.8 0.00 0.00 0.00 77 1012.1
20260509163004 28 140 1.6 4.8 0.00 0.00 0.00 78 1012.0
20260509162504 28 173 1.6 9.7 0.00 0.00 0.00 78 1012.1
20260509162004 28 240 1.6 9.7 0.00 0.00 0.00 79 1012.0
20260509161504 27 323 1.6 4.8 0.00 0.00 0.00 80 1011.9
20260509161004 27 281 1.6 6.4 0.00 0.00 0.00 82 1011.9
20260509160504 27 230 1.6 6.4 0.00 0.00 0.00 83 1011.9
20260509155504 26 186 3.2 12.9 0.00 0.00 0.00 84 1012.0
20260509155004 26 206 1.6 12.9 0.00 0.00 0.00 85 1012.0
20260509154504 25 231 1.6 6.4 0.00 0.00 0.00 86 1012.1
20260509154004 25 220 1.6 6.4 0.00 0.00 0.00 87 1012.1
20260509153504 25 222 1.6 9.7 0.00 0.00 0.00 86 1012.1
20260509152505 25 197 1.6 11.3 0.00 0.00 0.00 86 1011.9
20260509151004 25 202 1.6 4.8 0.00 0.00 0.00 86 1011.7
20260509150503 25 200 1.6 4.8 0.00 0.00 0.00 86 1011.7
20260509150004 25 189 1.6 6.4 0.00 0.00 0.00 87 1011.7
20260509145504 25 190 1.6 6.4 0.00 0.00 0.00 86 1011.7
20260509145004 26 190 1.6 8.0 0.00 0.00 0.00 86 1011.6
20260509144504 26 196 1.6 8.0 0.00 0.00 0.00 86 1011.6
20260509144004 25 198 1.6 6.4 0.00 0.00 0.00 87 1011.6
20260509143504 25 188 1.6 6.4 0.00 0.00 0.00 87 1011.5
20260509143004 25 194 1.6 12.9 0.00 0.00 0.00 87 1011.4
20260509142004 25 0 0.0 4.8 0.00 0.00 0.00 88 1011.2
20260509141504 25 209 1.6 4.8 0.00 0.00 0.00 88 1010.9
20260509141004 25 211 1.6 4.8 0.00 0.00 0.00 89 1010.8
20260509140005 24 222 1.6 4.8 0.00 0.00 0.00 89 1010.8
20260509135505 23 238 1.6 6.4 0.00 0.00 0.00 89 1010.7
20260509135004 23 239 1.6 8.0 0.00 0.00 0.00 88 1010.7
20260509134504 23 0 0.0 8.0 0.00 0.00 0.00 88 1010.9
20260509133503 22 0 0.0 3.2 0.00 0.00 0.00 88 1011.1
20260509132504 22 0 0.0 6.4 0.00 0.00 0.00 88 1011.2
20260509132004 22 0 0.0 6.4 0.00 0.00 0.00 88 1011.1
20260509131504 22 0 0.0 1.6 0.00 0.00 0.00 88 1011.1
20260509131004 22 0 0.0 1.6 0.00 0.00 0.00 88 1011.4
20260509130504 22 0 0.0 1.6 0.00 0.00 0.00 88 1011.6
20260509130004 22 0 0.0 1.6 0.00 0.00 0.00 88 1011.6
20260509125503 22 0 0.0 0.0 0.00 0.00 0.00 88 1011.6
20260509125004 21 0 0.0 0.0 0.00 0.00 0.00 88 1011.8
20260509124504 21 0 0.0 0.0 0.00 0.00 0.00 88 1011.7
20260509124004 21 0 0.0 0.0 0.00 0.00 0.00 88 1011.5
20260509123504 21 0 0.0 0.0 0.00 0.00 0.00 88 1011.5
20260509123004 21 0 0.0 0.0 0.00 0.00 0.00 88 1011.3
20260509122004 21 0 0.0 0.0 0.00 0.00 0.00 88 1011.2
20260509121504 21 0 0.0 0.0 0.00 0.00 0.00 88 1011.2
20260509121005 21 0 0.0 0.0 0.00 0.00 0.00 88 1011.4
20260509120504 21 0 0.0 0.0 0.00 0.00 0.00 88 1011.3
20260509115504 21 0 0.0 0.0 0.00 0.00 0.00 88 1011.2
20260509115004 21 0 0.0 0.0 0.00 0.00 0.00 88 1011.3
20260509114504 22 0 0.0 0.0 0.00 0.00 0.00 88 1011.5
20260509114004 22 0 0.0 0.0 0.00 0.00 0.00 88 1011.7
20260509113504 22 0 0.0 0.0 0.00 0.00 0.00 88 1012.1
20260509112504 22 0 0.0 0.0 0.00 0.00 0.00 88 1012.2
20260509112004 22 0 0.0 0.0 0.00 0.00 0.00 88 1012.4
20260509111504 22 0 0.0 0.0 0.00 0.00 0.00 88 1012.4
20260509111004 22 0 0.0 0.0 0.00 0.00 0.00 88 1012.4
20260509110504 22 0 0.0 0.0 0.00 0.00 0.00 88 1012.6
20260509105504 22 0 0.0 0.0 0.00 0.00 0.00 88 1012.5
20260509105004 22 0 0.0 0.0 0.00 0.00 0.00 88 1012.5
20260509103504 22 0 0.0 0.0 0.00 0.00 0.00 88 1012.6
20260509103004 22 0 0.0 0.0 0.00 0.00 0.00 88 1012.6
20260509102504 22 0 0.0 0.0 0.00 0.00 0.00 88 1012.6
20260509101004 22 0 0.0 0.0 0.00 0.00 0.00 88 1012.2
20260509100504 22 0 0.0 0.0 0.00 0.00 0.00 88 1012.0
20260509100005 22 0 0.0 0.0 0.00 0.00 0.00 88 1011.8
20260509094004 22 0 0.0 0.0 0.00 0.00 0.00 88 1011.1
20260509093504 22 0 0.0 0.0 0.00 0.00 0.00 88 1011.2
20260509093004 22 0 0.0 0.0 0.00 0.00 0.00 88 1010.9
20260509092504 22 0 0.0 0.0 0.00 0.00 0.00 88 1010.9
20260509092004 22 0 0.0 0.0 0.00 0.00 0.00 88 1010.9
20260509091504 22 0 0.0 0.0 0.00 0.00 0.00 88 1010.9
20260509091004 22 0 0.0 0.0 0.00 0.00 0.00 88 1010.9
20260509090504 22 0 0.0 0.0 0.00 0.00 0.00 88 1010.9
20260509090004 22 0 0.0 3.2 0.00 0.00 0.00 88 1010.9
20260509085504 22 0 0.0 3.2 0.00 0.00 0.00 88 1011.0
20260509085004 22 0 0.0 0.0 0.00 0.00 0.00 88 1011.0
20260509084504 22 0 0.0 0.0 0.00 0.00 0.00 88 1011.0
20260509084003 22 0 0.0 0.0 0.00 0.00 0.00 88 1011.2
20260509083504 22 0 0.0 0.0 0.00 0.00 0.00 88 1011.3
20260509083004 22 0 0.0 0.0 0.00 0.00 0.00 88 1011.3
20260509082004 22 0 0.0 0.0 0.00 0.00 0.00 88 1011.4
20260509081504 22 0 0.0 0.0 0.00 0.00 0.00 88 1011.3
20260509081004 22 0 0.0 0.0 0.00 0.00 0.00 88 1011.3
20260509080504 22 0 0.0 0.0 0.00 0.00 0.00 88 1011.4
20260509080004 22 0 0.0 0.0 0.00 0.00 0.00 88 1011.4
20260509075504 22 0 0.0 0.0 0.00 0.00 0.00 88 1011.6
20260509075004 22 0 0.0 0.0 0.00 0.00 0.00 88 1011.6
20260509074504 22 0 0.0 0.0 0.00 0.00 0.00 88 1011.5
20260509074004 22 0 0.0 0.0 0.00 0.00 0.00 88 1011.4
20260509073504 22 0 0.0 0.0 0.00 0.00 0.00 89 1011.5
20260509073004 22 0 0.0 0.0 0.00 0.00 0.00 89 1011.7
20260509072504 22 0 0.0 1.6 0.00 0.00 0.00 89 1011.7
20260509072004 22 0 0.0 1.6 0.00 0.00 0.00 89 1011.7
20260509071004 22 0 0.0 0.0 0.00 0.00 0.00 89 1011.9
20260509070504 22 0 0.0 0.0 0.00 0.00 0.00 89 1011.9
20260509070004 22 0 0.0 0.0 0.00 0.00 0.00 89 1011.9
20260509065004 22 0 0.0 1.6 0.00 0.00 0.00 89 1011.6
20260509064504 22 0 0.0 1.6 0.00 0.00 0.00 89 1011.4
20260509064004 22 0 0.0 1.6 0.00 0.00 0.00 89 1011.5
20260509063504 22 0 0.0 3.2 0.00 0.00 0.00 89 1011.5
20260509063004 22 0 0.0 3.2 0.00 0.00 0.00 89 1011.6
20260509062504 22 0 0.0 1.6 0.00 0.00 0.00 89 1011.7
20260509062003 22 0 0.0 3.2 0.00 0.00 0.00 89 1011.5
20260509061504 22 0 0.0 3.2 0.00 0.00 0.00 89 1011.4
20260509061004 22 0 0.0 6.4 0.00 0.00 0.00 89 1011.2
20260509060504 22 0 0.0 6.4 0.00 0.00 0.00 89 1011.0
20260509060004 22 0 0.0 6.4 0.00 0.00 0.00 89 1011.0
20260509055004 22 0 0.0 4.8 0.00 0.00 0.00 89 1011.2
20260509054504 22 0 0.0 6.4 0.00 0.00 0.00 89 1011.2
20260509053504 22 177 1.6 8.0 0.00 0.00 0.00 89 1010.7
20260509053004 22 159 1.6 9.7 0.00 0.00 0.00 89 1010.4
20260509052503 22 164 1.6 9.7 0.00 0.00 0.00 89 1010.3
20260509052004 22 0 0.0 4.8 0.00 0.00 0.00 89 1010.4
20260509051504 22 0 0.0 9.7 0.00 0.00 0.00 89 1010.3
20260509051004 22 0 0.0 9.7 0.00 0.00 0.00 89 1010.2
20260509045004 22 0 0.0 3.2 0.00 0.00 0.00 89 1010.3
20260509044504 22 0 0.0 3.2 0.00 0.00 0.00 89 1010.3
20260509043504 22 0 0.0 0.0 0.00 0.00 0.00 89 1010.6
20260509043005 22 0 0.0 1.6 0.00 0.00 0.00 89 1010.6
20260509042504 22 0 0.0 4.8 0.00 0.00 0.00 89 1010.6
20260509042004 22 0 0.0 4.8 0.00 0.00 0.00 89 1010.8
20260509041504 22 0 0.0 1.6 0.00 0.00 0.00 89 1010.9
20260509040504 22 0 0.0 3.2 0.00 0.00 0.00 89 1010.9
20260509040004 22 0 0.0 3.2 0.00 0.00 0.00 89 1010.9
20260509035504 22 0 0.0 4.8 0.00 0.00 0.00 89 1010.8
20260509035004 22 0 0.0 9.7 0.00 0.00 0.00 89 1010.7
20260509034504 22 0 0.0 9.7 0.00 0.00 0.00 89 1010.6
20260509034004 22 0 0.0 3.2 0.00 0.00 0.00 89 1010.6
20260509033504 22 0 0.0 3.2 0.00 0.00 0.00 89 1010.5
20260509033004 22 0 0.0 0.0 0.00 0.00 0.00 89 1010.5
20260509032503 22 0 0.0 0.0 0.00 0.00 0.00 89 1010.5
20260509032004 22 0 0.0 0.0 0.00 0.00 0.00 89 1010.5
20260509030004 22 0 0.0 0.0 0.00 0.00 0.00 88 1010.5
20260509025504 22 0 0.0 1.6 0.00 0.00 0.00 88 1010.5
20260509025004 22 0 0.0 1.6 0.00 0.00 0.00 88 1010.4
20260509024503 23 0 0.0 1.6 0.00 0.00 0.00 88 1010.3
20260509024004 23 0 0.0 1.6 0.00 0.00 0.00 88 1010.2
20260509023504 23 0 0.0 1.6 0.00 0.00 0.00 87 1010.2
20260509023004 23 0 0.0 3.2 0.00 0.00 0.00 87 1010.1